Time,TemperatureF,DewpointF,PressureIn,WindDirection,WindDirectionDegrees,WindSpeedMPH,WindSpeedGustMPH,Humidity,HourlyPrecipIn,Conditions,Clouds,dailyrainin,SoftwareType,DateUTC
2013-05-22 00:14:00,67.7,64.0,29.71,SE,136,1.0,2.0,88,0.00,,,0.00,weatherlink.com 1.10,2013-05-22 04:14:00,
2013-05-22 00:29:00,68.8,65.0,29.72,WSW,257,0.0,6.0,86,0.00,,,0.00,weatherlink.com 1.10,2013-05-22 04:29:00,
2013-05-22 00:44:00,67.8,64.0,29.71,West,259,0.0,2.0,87,0.00,,,0.00,weatherlink.com 1.10,2013-05-22 04:44:00,
2013-05-22 00:59:00,67.0,64.0,29.72,NE,53,0.0,3.0,89,0.00,,,0.00,weatherlink.com 1.10,2013-05-22 04:59:00,
2013-05-22 01:14:00,66.4,64.0,29.72,ENE,61,0.0,3.0,91,0.00,,,0.00,weatherlink.com 1.10,2013-05-22 05:14:00,
2013-05-22 01:29:00,66.3,61.0,29.74,West,271,7.0,20.0,82,0.00,,,0.00,weatherlink.com 1.10,2013-05-22 05:29:00,
2013-05-22 01:44:00,63.1,59.0,29.75,North,360,8.0,13.0,87,0.05,,,0.05,weatherlink.com 1.10,2013-05-22 05:44:00,
2013-05-22 02:00:00,61.4,59.0,29.74,North,360,9.0,15.0,91,0.10,,,0.10,weatherlink.com 1.10,2013-05-22 06:00:00,
2013-05-22 02:15:00,60.1,58.0,29.71,North,360,7.0,14.0,94,0.24,,,0.24,weatherlink.com 1.10,2013-05-22 06:15:00,
2013-05-22 02:30:00,60.0,59.0,29.73,North,5,7.0,9.0,95,0.26,,,0.26,weatherlink.com 1.10,2013-05-22 06:30:00,
2013-05-22 02:45:00,59.7,59.0,29.73,NNE,19,4.0,8.0,96,0.26,,,0.31,weatherlink.com 1.10,2013-05-22 06:45:00,
2013-05-22 03:00:00,59.6,59.0,29.74,NE,42,2.0,8.0,96,0.19,,,0.31,weatherlink.com 1.10,2013-05-22 07:00:00,
2013-05-22 03:15:00,59.5,58.0,29.73,East,79,0.0,4.0,96,0.07,,,0.31,weatherlink.com 1.10,2013-05-22 07:15:00,
2013-05-22 03:30:00,59.2,58.0,29.71,NE,34,0.0,5.0,96,0.05,,,0.31,weatherlink.com 1.10,2013-05-22 07:30:00,
2013-05-22 03:45:00,58.9,58.0,29.72,NE,37,3.0,3.0,96,0.00,,,0.31,weatherlink.com 1.10,2013-05-22 07:45:00,
2013-05-22 04:00:00,58.8,58.0,29.72,NE,36,2.0,3.0,97,0.00,,,0.31,weatherlink.com 1.10,2013-05-22 08:00:00,
2013-05-22 04:15:00,58.8,58.0,29.73,NE,40,0.0,3.0,97,0.00,,,0.31,weatherlink.com 1.10,2013-05-22 08:15:00,
2013-05-22 04:31:00,59.4,59.0,29.73,ENE,65,2.0,4.0,97,0.00,,,0.31,weatherlink.com 1.10,2013-05-22 08:31:00,
2013-05-22 04:45:00,59.8,59.0,29.74,NNE,30,2.0,4.0,96,0.00,,,0.31,weatherlink.com 1.10,2013-05-22 08:45:00,
2013-05-22 05:00:00,59.6,59.0,29.74,NNE,29,1.0,3.0,97,0.00,,,0.31,weatherlink.com 1.10,2013-05-22 09:00:00,
2013-05-22 05:15:00,59.5,59.0,29.74,NNE,29,0.0,2.0,97,0.00,,,0.31,weatherlink.com 1.10,2013-05-22 09:15:00,
2013-05-22 05:30:00,59.2,58.0,29.74,NNE,30,0.0,3.0,97,0.00,,,0.31,weatherlink.com 1.10,2013-05-22 09:30:00,
2013-05-22 05:45:00,58.8,58.0,29.75,NNE,29,0.0,0.0,97,0.00,,,0.31,weatherlink.com 1.10,2013-05-22 09:45:00,
2013-05-22 06:00:00,58.6,58.0,29.75,NNE,29,0.0,0.0,97,0.00,,,0.31,weatherlink.com 1.10,2013-05-22 10:00:00,
2013-05-22 06:15:00,58.3,58.0,29.75,NNE,30,0.0,0.0,97,0.00,,,0.31,weatherlink.com 1.10,2013-05-22 10:15:00,
2013-05-22 06:30:00,58.5,58.0,29.75,NNE,30,0.0,2.0,98,0.00,,,0.31,weatherlink.com 1.10,2013-05-22 10:30:00,
2013-05-22 06:45:00,58.6,58.0,29.75,NE,39,0.0,2.0,98,0.00,,,0.31,weatherlink.com 1.10,2013-05-22 10:45:00,
2013-05-22 07:00:00,58.9,58.0,29.75,ESE,107,1.0,4.0,98,0.00,,,0.31,weatherlink.com 1.10,2013-05-22 11:00:00,
2013-05-22 07:15:00,59.8,59.0,29.75,SSE,160,3.0,4.0,98,0.00,,,0.31,weatherlink.com 1.10,2013-05-22 11:15:00,
2013-05-22 07:30:00,61.2,61.0,29.76,South,178,2.0,5.0,98,0.00,,,0.31,weatherlink.com 1.10,2013-05-22 11:30:00,
2013-05-22 07:45:00,61.9,61.0,29.75,SSW,192,2.0,6.0,98,0.00,,,0.31,weatherlink.com 1.10,2013-05-22 11:45:00,
2013-05-22 08:00:00,62.7,62.0,29.75,South,188,2.0,5.0,98,0.00,,,0.31,weatherlink.com 1.10,2013-05-22 12:00:00,
2013-05-22 08:15:00,63.4,63.0,29.75,SSW,197,3.0,4.0,98,0.00,,,0.31,weatherlink.com 1.10,2013-05-22 12:15:00,
2013-05-22 08:30:00,64.1,63.0,29.74,SSW,196,2.0,4.0,96,0.00,,,0.31,weatherlink.com 1.10,2013-05-22 12:30:00,
2013-05-22 08:45:00,65.6,64.0,29.75,SW,215,1.0,5.0,94,0.00,,,0.31,weatherlink.com 1.10,2013-05-22 12:45:00,
2013-05-22 09:00:00,67.2,65.0,29.74,SSW,204,0.0,4.0,93,0.00,,,0.31,weatherlink.com 1.10,2013-05-22 13:00:00,
2013-05-22 09:15:00,67.4,65.0,29.74,SW,235,5.0,7.0,92,0.00,,,0.31,weatherlink.com 1.10,2013-05-22 13:15:00,
2013-05-22 09:30:00,68.2,65.0,29.74,SW,224,4.0,6.0,89,0.00,,,0.31,weatherlink.com 1.10,2013-05-22 13:30:00,
2013-05-22 09:45:00,69.9,67.0,29.74,South,180,1.0,7.0,91,0.01,,,0.32,weatherlink.com 1.10,2013-05-22 13:45:00,
2013-05-22 10:00:00,70.8,66.0,29.74,South,191,0.0,6.0,85,0.01,,,0.32,weatherlink.com 1.10,2013-05-22 14:00:00,
2013-05-22 10:15:00,71.7,67.0,29.73,SW,215,3.0,7.0,84,0.01,,,0.32,weatherlink.com 1.10,2013-05-22 14:15:00,
2013-05-22 10:30:00,72.7,67.0,29.74,SSE,165,3.0,7.0,82,0.01,,,0.32,weatherlink.com 1.10,2013-05-22 14:30:00,
2013-05-22 10:45:00,73.7,66.0,29.74,SW,236,3.0,7.0,77,0.00,,,0.32,weatherlink.com 1.10,2013-05-22 14:45:00,
2013-05-22 11:00:00,73.1,67.0,29.74,WSW,258,5.0,7.0,80,0.00,,,0.32,weatherlink.com 1.10,2013-05-22 15:00:00,
2013-05-22 11:15:00,74.2,67.0,29.74,SW,236,3.0,8.0,78,0.00,,,0.32,weatherlink.com 1.10,2013-05-22 15:15:00,
2013-05-22 11:30:00,75.2,67.0,29.74,NW,310,4.0,8.0,76,0.00,,,0.32,weatherlink.com 1.10,2013-05-22 15:30:00,
2013-05-22 11:46:00,75.5,67.0,29.73,WNW,300,3.0,8.0,76,0.00,,,0.32,weatherlink.com 1.10,2013-05-22 15:46:00,
2013-05-22 12:01:00,75.5,65.0,29.73,South,184,2.0,8.0,71,0.00,,,0.32,weatherlink.com 1.10,2013-05-22 16:01:00,
2013-05-22 12:16:00,75.0,67.0,29.73,SSW,208,6.0,7.0,76,0.00,,,0.32,weatherlink.com 1.10,2013-05-22 16:16:00,
2013-05-22 12:31:00,73.5,66.0,29.74,WSW,245,4.0,8.0,77,0.00,,,0.32,weatherlink.com 1.10,2013-05-22 16:31:00,
2013-05-22 12:46:00,71.6,67.0,29.73,WSW,238,3.0,4.0,84,0.04,,,0.36,weatherlink.com 1.10,2013-05-22 16:46:00,
2013-05-22 13:01:00,72.9,69.0,29.72,SSE,164,2.0,5.0,87,0.04,,,0.36,weatherlink.com 1.10,2013-05-22 17:01:00,
2013-05-22 13:16:00,73.8,68.0,29.72,SSW,198,2.0,8.0,82,0.04,,,0.36,weatherlink.com 1.10,2013-05-22 17:16:00,
2013-05-22 13:31:00,73.8,67.0,29.71,South,173,4.0,10.0,79,0.04,,,0.36,weatherlink.com 1.10,2013-05-22 17:31:00,
2013-05-22 13:46:00,71.1,66.0,29.72,South,178,1.0,5.0,84,0.00,,,0.36,weatherlink.com 1.10,2013-05-22 17:46:00,
2013-05-22 14:01:00,69.5,66.0,29.72,SW,217,0.0,4.0,88,0.00,,,0.36,weatherlink.com 1.10,2013-05-22 18:01:00,
2013-05-22 14:16:00,68.1,66.0,29.72,SSE,147,0.0,5.0,92,0.03,,,0.39,weatherlink.com 1.10,2013-05-22 18:16:00,
2013-05-22 14:31:00,66.8,65.0,29.72,SW,216,3.0,5.0,94,0.05,,,0.41,weatherlink.com 1.10,2013-05-22 18:31:00,
2013-05-22 14:46:00,66.3,65.0,29.72,South,178,3.0,5.0,95,0.05,,,0.41,weatherlink.com 1.10,2013-05-22 18:46:00,
2013-05-22 15:01:00,66.7,66.0,29.72,South,187,2.0,3.0,96,0.05,,,0.41,weatherlink.com 1.10,2013-05-22 19:01:00,
2013-05-22 15:16:00,66.3,65.0,29.72,South,184,0.0,4.0,95,0.03,,,0.42,weatherlink.com 1.10,2013-05-22 19:16:00,
2013-05-22 15:31:00,67.2,66.0,29.73,South,187,1.0,4.0,96,0.01,,,0.42,weatherlink.com 1.10,2013-05-22 19:31:00,
2013-05-22 15:46:00,68.7,67.0,29.73,SSW,196,2.0,5.0,94,0.01,,,0.42,weatherlink.com 1.10,2013-05-22 19:46:00,
2013-05-22 16:01:00,70.8,67.0,29.72,ESE,115,1.0,7.0,88,0.01,,,0.42,weatherlink.com 1.10,2013-05-22 20:01:00,
2013-05-22 16:16:00,72.6,67.0,29.72,South,181,7.0,7.0,81,0.00,,,0.42,weatherlink.com 1.10,2013-05-22 20:16:00,
2013-05-22 16:31:00,73.2,66.0,29.71,South,179,1.0,8.0,77,0.00,,,0.42,weatherlink.com 1.10,2013-05-22 20:31:00,
2013-05-22 16:46:00,74.0,67.0,29.70,ESE,105,1.0,9.0,79,0.00,,,0.42,weatherlink.com 1.10,2013-05-22 20:46:00,
2013-05-22 17:01:00,74.5,64.0,29.71,South,171,3.0,8.0,70,0.00,,,0.42,weatherlink.com 1.10,2013-05-22 21:01:00,
2013-05-22 17:16:00,75.0,65.0,29.70,SSW,205,1.0,10.0,71,0.00,,,0.42,weatherlink.com 1.10,2013-05-22 21:16:00,
2013-05-22 17:31:00,75.1,66.0,29.70,SSW,194,3.0,10.0,74,0.00,,,0.42,weatherlink.com 1.10,2013-05-22 21:31:00,
2013-05-22 17:46:00,75.2,65.0,29.69,South,188,4.0,7.0,71,0.00,,,0.42,weatherlink.com 1.10,2013-05-22 21:46:00,
2013-05-22 18:01:00,75.4,65.0,29.69,South,171,5.0,8.0,71,0.00,,,0.42,weatherlink.com 1.10,2013-05-22 22:01:00,
2013-05-22 18:16:00,74.7,66.0,29.70,SSE,159,5.0,8.0,74,0.00,,,0.42,weatherlink.com 1.10,2013-05-22 22:16:00,
2013-05-22 18:31:00,73.7,65.0,29.70,SSE,161,2.0,7.0,75,0.00,,,0.42,weatherlink.com 1.10,2013-05-22 22:31:00,
2013-05-22 18:46:00,71.9,66.0,29.70,South,182,0.0,4.0,81,0.00,,,0.42,weatherlink.com 1.10,2013-05-22 22:46:00,
2013-05-22 19:01:00,70.6,65.0,29.70,South,180,3.0,8.0,83,0.00,,,0.42,weatherlink.com 1.10,2013-05-22 23:01:00,
2013-05-22 19:16:00,69.6,65.0,29.70,SSE,150,3.0,8.0,85,0.00,,,0.42,weatherlink.com 1.10,2013-05-22 23:16:00,
2013-05-22 19:31:00,68.6,65.0,29.71,SSE,160,1.0,5.0,88,0.00,,,0.42,weatherlink.com 1.10,2013-05-22 23:31:00,
2013-05-22 19:46:00,68.1,65.0,29.71,WSW,237,2.0,10.0,88,0.00,,,0.42,weatherlink.com 1.10,2013-05-22 23:46:00,
2013-05-22 20:01:00,67.7,65.0,29.71,SSE,165,4.0,7.0,92,0.00,,,0.42,weatherlink.com 1.10,2013-05-23 00:01:00,
2013-05-22 20:16:00,67.9,66.0,29.70,SSW,198,4.0,8.0,93,0.00,,,0.42,weatherlink.com 1.10,2013-05-23 00:16:00,
2013-05-22 20:31:00,67.6,66.0,29.71,South,181,4.0,10.0,93,0.00,,,0.42,weatherlink.com 1.10,2013-05-23 00:31:00,
2013-05-22 20:46:00,67.7,66.0,29.71,South,176,6.0,9.0,93,0.00,,,0.42,weatherlink.com 1.10,2013-05-23 00:46:00,
2013-05-22 21:01:00,67.7,66.0,29.72,SSW,198,2.0,9.0,94,0.00,,,0.42,weatherlink.com 1.10,2013-05-23 01:01:00,
2013-05-22 21:16:00,67.8,66.0,29.72,SSE,157,3.0,11.0,93,0.00,,,0.42,weatherlink.com 1.10,2013-05-23 01:16:00,
2013-05-22 21:31:00,67.8,66.0,29.73,South,174,1.0,7.0,93,0.00,,,0.42,weatherlink.com 1.10,2013-05-23 01:31:00,
2013-05-22 21:46:00,67.7,66.0,29.73,SW,221,4.0,9.0,94,0.00,,,0.42,weatherlink.com 1.10,2013-05-23 01:46:00,
2013-05-22 22:01:00,67.9,66.0,29.73,SSW,203,3.0,8.0,93,0.00,,,0.42,weatherlink.com 1.10,2013-05-23 02:01:00,
2013-05-22 22:16:00,68.1,66.0,29.74,SSW,192,2.0,6.0,93,0.00,,,0.42,weatherlink.com 1.10,2013-05-23 02:16:00,
2013-05-22 22:31:00,68.1,66.0,29.73,ESE,106,0.0,5.0,93,0.00,,,0.42,weatherlink.com 1.10,2013-05-23 02:31:00,
2013-05-22 22:46:00,69.0,66.0,29.72,SW,217,1.0,8.0,89,0.00,,,0.42,weatherlink.com 1.10,2013-05-23 02:46:00,
2013-05-22 23:01:00,69.2,66.0,29.71,South,182,2.0,8.0,88,0.00,,,0.42,weatherlink.com 1.10,2013-05-23 03:01:00,
2013-05-22 23:16:00,68.6,65.0,29.72,SSW,193,4.0,14.0,88,0.00,,,0.42,weatherlink.com 1.10,2013-05-23 03:16:00,
2013-05-22 23:31:00,68.6,65.0,29.72,SSW,196,4.0,17.0,87,0.00,,,0.42,weatherlink.com 1.10,2013-05-23 03:31:00,
2013-05-22 23:46:00,69.2,64.0,29.74,SSW,196,7.0,12.0,83,0.00,,,0.42,weatherlink.com 1.10,2013-05-23 03:46:00,